This demonstration page uses our WeatherBlox Daily Observations layout. Learn more.

39.08367, -84.50855

Hourly Observations for January 31, 2020

Temp ( °F °C ) Dew Point ( °F °C ) Humidity (%) Winds ( mph kmh ) Pressure ( in mb ) Visibility ( mi km ) Precip ( " mm )
12:53 am 00:53 Cloudy 34 1.1 27 -2.8 76 76 NE 3 6 30.23 1024 10 16.0934 0 0
1:53 am 01:53 Cloudy 35 1.7 26 -3.3 70 70 NE 3 6 30.21 1023 10 16.0934 0 0
2:53 am 02:53 Cloudy 35 1.7 26 -3.3 70 70 NNE 3 6 30.21 1023 10 16.0934 0 0
3:53 am 03:53 Cloudy 34 1.1 26 -3.3 73 73 NE 5 7 30.19 1023 10 16.0934 0 0
4:53 am 04:53 Cloudy 34 1.1 26 -3.3 73 73 NNE 6 9 30.18 1022 10 16.0934 0 0
5:53 am 05:53 Cloudy 34 1.1 26 -3.3 73 73 NE 3 6 30.19 1022 10 16.0934 0 0
6:53 am 06:53 Cloudy 34 1.1 27 -2.8 76 76 Calm 30.19 1023 10 16.0934 0 0
7:53 am 07:53 Cloudy 35 1.7 27 -2.8 72 72 N 6 9 30.19 1022 10 16.0934 0 0
8:53 am 08:53 Cloudy 35 1.7 28 -2.2 76 76 NNE 6 9 30.19 1022 7 11.26538 0 0
9:11 am 09:11 Cloudy with Light Snow 34 1.1 28 -2.2 79 79 NNE 5 7 30.22 1023 1.75 2.816345 0.001 0.001
9:23 am 09:23 Cloudy with Light Snow 34 1.1 29 -1.7 82 82 NNE 3 6 30.23 1024 2 3.21868 0.001 0.001
9:53 am 09:53 Mostly Cloudy with Light Snow 33 0.6 31 -0.6 92 92 NNE 3 6 30.21 1023 0.75 1.207005 0.01 0.254
10:53 am 10:53 Cloudy with Light Snow 33 0.6 32 0 96 96 NNE 5 7 30.21 1023 0.75 1.207005 0.03 0.762
11:53 am 11:53 Cloudy with Light Snow 34 1.1 32 0 92 92 Calm 30.22 1023 1 1.60934 0.02 0.508
12:53 pm 12:53 Cloudy with Mist and Fog 35 1.7 33 0.6 93 93 NE 3 6 30.19 1022 2 3.21868 0.02 0.508
1:53 pm 13:53 Cloudy with Light Rain 36 2.2 34 1.1 93 93 NE 3 6 30.16 1021 2 3.21868 0.001 0.001
2:00 pm 14:00 Cloudy with Light Rain 36 2.2 34 1.1 93 93 Calm 30.17 1022 4 6.43736 0.001 0.001
2:53 pm 14:53 Cloudy with Light Rain 37 2.8 34 1.1 89 89 Calm 30.14 1021 4 6.43736 0.001 0.001
3:53 pm 15:53 Cloudy with Light Rain 38 3.3 34 1.1 86 86 NE 5 7 30.14 1021 7 11.26538 0.001 0.001
4:53 pm 16:53 Cloudy with Light Rain 38 3.3 34 1.1 86 86 E 3 6 30.15 1021 8 12.87472 0.001 0.001
5:53 pm 17:53 Cloudy 38 3.3 34 1.1 86 86 NNE 3 6 30.15 1021 8 12.87472 0.001 0.001
6:53 pm 18:53 Cloudy 37 2.8 35 1.7 93 93 NE 3 6 30.15 1021 7 11.26538 0 0
7:53 pm 19:53 Cloudy 37 2.8 35 1.7 93 93 ENE 3 6 30.16 1021 7 11.26538 0 0
8:53 pm 20:53 Cloudy 37 2.8 35 1.7 93 93 NNE 5 7 30.15 1021 7 11.26538 0 0
9:53 pm 21:53 Cloudy 37 2.8 34 1.1 89 89 NE 3 6 30.15 1021 9 14.48406 0 0
10:53 pm 22:53 Cloudy 37 2.8 35 1.7 93 93 Calm 30.14 1021 8 12.87472 0 0
11:28 pm 23:28 Cloudy 37 2.8 35 1.7 93 93 Calm 30.15 1021 8 12.87472 0 0
11:53 pm 23:53 Cloudy 37 2.8 35 1.7 93 93 Calm 30.13 1020 7 11.26538 0 0

Powered by AerisWeather